{"data":{"norad_id":66875,"epoch":"2026-05-25T00:56:46.345056Z","epoch_age_seconds":71886,"freshness":"FRESH","line1":"1 66875U 25281AD  26145.03942529  .00022940  00000+0  84075-3 0  9995","line2":"2 66875  42.9983 272.1587 0001761  34.2504 325.8461 15.27572705 27801","mean_motion":15.27572705,"eccentricity":0.0001761,"inclination_deg":42.9983,"raan_deg":272.1587,"arg_perigee_deg":34.2504,"mean_anomaly_deg":325.8461,"bstar":0.00084075,"rev_number":2780,"period_min":94.267198889234,"perigee_km":481.86268126272,"apogee_km":484.27919869918,"semimajor_km":6861.2079399809,"source":"CELESTRAK","updated_at":"2026-05-25T13:38:21.377113Z"}}